Lid_Strength_Index
14 14 14 15 15 15 14 14 14 12 10 7 4 5 5 5 5 5 6 5 6 7
14 14 15 15 15 15 15 14 13 12 12 10 5 5 6 6 6 6 6 6 6 8
14 14 14 15 15 15 15 14 14 13 12 10 7 5 6 6 7 7 6 7 7 8
14 14 14 15 15 15 15 15 15 15 13 11 9 5 6 6 7 7 7 8 9 9
13 14 14 15 15 16 16 16 16 15 14 13 11 5 6 6 6 7 7 8 8 9
14 13 15 15 15 15 16 17 16 15 15 14 12 7 5 6 7 7 7 8 8 8
15 14 14 15 16 16 16 17 17 16 15 14 12 10 5 5 6 7 6 7 7 8
16 14 14 14 15 16 16 16 17 17 15 14 13 11 5 5 6 7 7 7 8 7
17 15 15 14 14 15 16 16 16 17 15 15 13 10 7 6 6 6 7 8 8 7
17 17 16 15 14 15 16 16 17 17 16 15 14 11 8 7 5 6 6 7 8 8
18 18 16 16 15 14 15 16 16 17 16 16 14 12 12 6 5 5 6 7 8 8
18 18 17 17 16 14 14 16 16 16 17 16 15 13 13 6 5 6 6 6 7 8
18 18 18 16 15 14 13 15 15 16 16 15 15 13 12 6 5 7 7 7 7 9
18 18 16 15 14 14 13 13 14 15 15 16 14 13 12 9 5 6 7 8 8 8